Flag for Germany Weather past 2 weeks in Salzwedel, Saxony-Anhalt, Germany

Now
39 °F

Passing clouds.


Feels Like: 33 °F
Forecast: 39 / 57 °F
Wind: 9 mph from Southwest

Location: Fassberg

Current Time: Mar 7, 2015 at 6:33:00 AM

Latest Report: Mar 7, 2015 at 5:20 AM


Visibility: N/A

Pressure: 30.42 "Hg

Humidity: 75%

Dew point: 32 °F

Location of SalzwedelLocation

Historic Weather in Salzwedel — Graph

°F

Salzwedel temperature yesterday

Maximum temperature yesterday: 46 °F (at 1:20 PM)
Minimum temperature yesterday: 39 °F (at 12:20 AM)
Average temperature yesterday: 43 °F

Past Weeks' High & Low Weather Summary

 TemperatureHumidityPressure
High48 °F (Feb 26, 1:20 PM)100% (Feb 25, 12:20 AM)30.57 "Hg (Feb 25, 12:20 AM)
Low30 °F (Feb 28, 2:20 AM)49% (Feb 28, 4:20 PM)29.27 "Hg (Feb 21, 10:20 AM)
Average39 °F81%29.87 "Hg
* Reported Feb 20 5:20 AM — Mar 7 5:20 AM, Salzwedel, Weather by CustomWeather, © 2015

Note: Actual official high and low records may vary slightly from our data, if they occured in-between our weather recording intervals... More about our weather records

Advertising

Salzwedel weather history for previous 24 hours

 ConditionsComfort  
Time TempWeatherWind HumidityBarometerVisibility
5:20 AM
Sat, Mar 7
39 °FPassing clouds.9 mph75%30.42 "HgN/A
4:20 AM41 °FPassing clouds.8 mph70%30.42 "HgN/A
3:20 AM43 °FPassing clouds.8 mph66%30.45 "HgN/A
2:20 AM43 °FPassing clouds.6 mph66%30.48 "HgN/A
1:20 AM43 °FPassing clouds.7 mph66%30.51 "HgN/A
12:20 AM43 °FPassing clouds.9 mph71%30.51 "HgN/A
11:20 PM
Fri, Mar 6
43 °FPassing clouds.6 mph71%30.51 "HgN/A
10:20 PM43 °FPassing clouds.7 mph76%30.51 "HgN/A
9:20 PM45 °FPassing clouds.9 mph71%30.51 "HgN/A
8:20 PM45 °FPassing clouds.9 mph71%30.51 "HgN/A
7:20 PM45 °FPassing clouds.7 mph71%30.51 "HgN/A
6:20 PM46 °FPassing clouds.7 mph66%30.51 "HgN/A
5:20 PM46 °FPartly sunny.9 mph66%30.48 "HgN/A
4:20 PM46 °FPartly sunny.10 mph66%30.48 "HgN/A
3:20 PM46 °FPartly sunny.9 mph66%30.48 "HgN/A
2:20 PM46 °FPartly sunny.9 mph66%30.51 "HgN/A
1:20 PM46 °FPartly sunny.9 mph66%30.51 "HgN/A
12:20 PM45 °FPartly sunny.9 mph71%30.54 "HgN/A
11:20 AM43 °FPartly sunny.9 mph76%30.54 "HgN/A
10:20 AM43 °FPartly sunny.9 mph76%30.54 "HgN/A
9:20 AM41 °FPartly sunny.6 mph76%30.54 "HgN/A
8:20 AM39 °FPartly sunny.7 mph81%30.51 "HgN/A
7:20 AM39 °FPartly sunny.8 mph87%30.51 "Hg5 mi
6:20 AM39 °FPartly cloudy.9 mph81%30.54 "HgN/A
Weather by CustomWeather, © 2015

See weather overviewHow to use our weather pages